Hourly Data Report for October 14, 2015

All times are specified in Local Standard Time (LST). Add 1 hour to adjust for Daylight Saving Time where and when it is observed.

POND INLET A
NUNAVUT

72°41'22.000" N
77°58'08.000" W
61.60 m
2403206
71095
YIO

Download Data

Hourly Data (October 2015)
Hourly Data Report for October 14, 2015
Temp Definition
°C
Dew Point Temp Definition
°C
Rel Hum Definition
%
Wind Dir Definition
10's deg

Wind Spd Definition
km/h
Visibility Definition
km
Stn Press Definition
kPa
Hmdx Definition


Wind Chill Definition


Weather Definition


TIME
00:00 Legend Double Dagger -4.6 -6.4 87   0 16.1 98.97     LegendNANA
01:00 Legend Double Dagger -5.4 -6.9 89 15 15 16.1 98.95   -11 LegendNANA
02:00 Legend Double Dagger -5.3 -8.0 81 8 8 16.1 98.94   -9 LegendNANA
03:00 Legend Double Dagger -4.8 -7.9 79 18 4 16.1 98.93   -7 LegendNANA
04:00 Legend Double Dagger -7.0 -9.4 83 13 13 16.1 98.89   -13 LegendNANA
05:00 Legend Double Dagger -4.7 -9.5 69 13 13 16.1 98.90   -10 LegendNANA
06:00 Legend Double Dagger -4.5 -8.2 76 32 8 16.1 98.89   -8 LegendNANA
07:00 Legend Double Dagger -5.7 -9.3 76 14 9 16.1 98.87   -10 LegendNANA
08:00 Legend Double Dagger -5.9 -9.2 78 18 9 16.1 98.82   -10 LegendNANA
09:00 Legend Double Dagger -5.3 -9.2 74 16 9 16.1 98.79   -9 LegendNANA
10:00 Legend Double Dagger -6.6 -9.8 78 17 9 16.1 98.76   -11 LegendNANA
11:00 Legend Double Dagger -6.0 -9.1 79 14 15 16.1 98.71   -12 LegendNANA
12:00 Legend Double Dagger -5.5 -8.6 79 14 13 16.1 98.67   -11 LegendNANA
13:00 Legend Double Dagger -5.3 -7.6 84 15 13 16.1 98.61   -10 LegendNANA
14:00 Legend Double Dagger -5.3 -7.4 85 16 13 16.1 98.58   -10 LegendNANA
15:00 Legend Double Dagger -5.2 -7.0 87 16 17 16.1 98.59   -11 LegendNANA
16:00 Legend Double Dagger -5.9 -7.4 89 15 17 16.1 98.59   -12 LegendNANA
17:00 Legend Double Dagger -5.7 -7.5 87 14 18 16.1 98.59   -12 LegendNANA
18:00 Legend Double Dagger -5.3 -7.4 85 15 15 16.1 98.57   -11 LegendNANA
19:00 Legend Double Dagger -6.5 -8.5 86 15 17 16.1 98.58   -13 LegendNANA
20:00 Legend Double Dagger -5.7 -7.9 85 15 17 16.1 98.57   -12 LegendNANA
21:00 Legend Double Dagger -4.6 -7.2 82 19 13 16.1 98.51   -10 LegendNANA
22:00 Legend Double Dagger -5.8 -8.4 82 15 17 16.1 98.45   -12 LegendNANA
23:00 Legend Double Dagger -5.6 -9.0 77 15 18 16.1 98.40   -12 LegendNANA

Notes on Data Quality.

Legend

  • E = Estimated
  • M = Missing
  • NA = Not Available
  • ‡ = Partner data that is not subject to review by the National Climate Archives
Date modified: